Current weather by "City, St" or "zip code"  
 

Current Conditions: Chester, Chester Airport, CT

Fair


61.0 F

Last Updated on Sep 18 2020, 3:35 am EDT
Humidity: 94%
Wind Speed: N 8.1 mph
Barometer 29.93 in
Dewpoint: 59.0 F
Visibility: 10.00 mi
Precip: --
Heat Index: NA
Wind Chill: 60 F
Current conditions at:

Chester, Chester Airport, CT (KSNC)

Lat: 41.38389 Lon: 72.50583

Local Radar Image active severe weather and emergency alerts image image weather storm and storm spotter reports image weather observation monitoring service image
Local
Radar
Active
Alerts
Storm Reports Obs
Monitoring

Sign-up For Email & Text Message Weather Alert Notification Services



Advertise Here

Observation History for Chester, Chester Airport, CT


Time Wind
(mph)
Vis
(mi)
Weather Precip (in) Temperature (F) Relative
Humidity
Wind
Chill
(F)
Heat
Index
(F)
Pressure
Air Dwpt altimeter
(in)
sea level
(mb)
Rmks
3:35 am EDT N 8.1 10.00 Fair -- 61.0 59.0 94% 60 NA 29.93 M
2:35 am EDT N 6.9 10.00 Fair -- 61.0 60.8 100% 60 NA 29.94 M
1:15 am EDT N 5.8 7.00 Partly Cloudy -- 64.0 64.4 100% NA NA 29.96 M
12:55 am EDT NW 4.6 5.00 Fog/Mist -- 64.0 64.4 100% NA NA 29.96 M
10:55 pm EDT N 0.0 9.00 Fair -- 64.0 64.4 100% NA NA 29.99 M
8:15 pm EDT N 0.0 10.00 Fair -- 66.0 64.4 94% NA NA 30.00 M
6:55 pm EDT S 4.6 10.00 Fair -- 68.0 64.4 88% NA NA 29.98 M
5:35 pm EDT S 4.6 10.00 Fair -- 70.0 64.4 83% NA NA 29.98 M
4:55 pm EDT SW 5.8 10.00 Fair -- 72.0 62.6 73% NA NA 29.98 M
3:55 pm EDT SW 5.8 10.00 A Few Clouds -- 73.0 59.0 61% NA NA 29.99 M
1:55 pm EDT SW 8.1 10.00 A Few Clouds -- 73.0 60.8 65% NA NA 30.02 M
12:15 pm EDT SW 10.4 10.00 Fair -- 72.0 60.8 69% NA NA 30.04 M
11:15 am EDT SW 9.2 10.00 A Few Clouds -- 73.0 60.8 65% NA NA 30.05 M
10:15 am EDT SW 4.6 10.00 Fair -- 68.0 59.0 73% NA NA 30.06 M
8:55 am EDT N 0.0 10.00 Fair -- 66.0 59.0 78% NA NA 30.07 M
7:35 am EDT N 0.0 10.00 A Few Clouds -- 61.0 59.0 94% NA NA 30.07 M
6:55 am EDT N 0.0 10.00 Partly Cloudy -- 59.0 57.2 94% NA NA 30.06 M
5:55 am EDT N 0.0 10.00 Partly Cloudy -- 59.0 59.0 100% NA NA 30.06 M
4:15 am EDT N 0.0 10.00 Fair -- 61.0 57.2 88% NA NA 30.07 M

Regional Weather Observation


Hartford, Hartford-Brainard Airport, CT (KHFD)

Fair
61.0 F

Windsor Locks, Bradley International Airport, CT (KBDL)

Overcast
57.0 F

Chester, Chester Airport, CT (KSNC)

Fair
61.0 F

New Haven, Tweed-New Haven Airport, CT (KHVN)

A Few Clouds
63.0 F

Willimantic, Windham Airport, CT (KIJD)

Fair
60.0 F

Groton / New London, Groton / New London Airport, CT (KGON)

Light Rain
63.0 F